Regional Weather Roundup
Issued by NWS

Home | Current Version | Previous Version | Graphics & Text | Print | Product List | Glossary Off
Versions: 1 2 3 4 5 6 7 8 9 10 11 12 13 14 15 16 17 18 19 20 21 22 23 24 25 26 27 28 29 30 31 32 33 34 35 36 37 38 39 40 41 42 43 44 45 46 47 48 49 50

000
ASUS43 KDMX 241401
RWRIA

WEATHER ROUNDUP FOR IOWA
NATIONAL WEATHER SERVICE DES MOINES IA
900 AM CDT SUN SEP 24 2017

NOTE: "FAIR" INDICATES FEW OR NO CLOUDS BELOW 12,000 FEET WITH NO
SIGNIFICANT WEATHER AND/OR OBSTRUCTIONS TO VISIBILITY.

* - THESE STATIONS ARE NOT NWS STATIONS...THUS NOT UNDER NWS
QUALITY CONTROL.  THEY ALSO DO NOT REPORT WEATHER SUCH
AS PRECIPITATION OR FOG.

IAZ001>003-012>014-020>022-031>034-043>046-241500-
   NORTHWEST IOWA

CITY           SKY/WX    TMP DP  RH WIND       PRES   REMARKS
CARROLL *      SUNNY     70  68  94 S5        29.96S
CHEROKEE *     SUNNY     71  68  90 S8        29.93S
DENISON *      SUNNY     73  66  78 S14       29.95S
LE MARS *      MOSUNNY   72  66  83 S7        29.90S
ORANGE CITY *  MOSUNNY   72  68  88 S9        29.92R
SHELDON *      MOSUNNY   72  66  83 S10       29.91S
SIOUX CITY     MOSUNNY   70  67  90 SE8       29.90S
SPENCER        MOSUNNY   72  66  81 S12       29.94S
STORM LAKE *   SUNNY     70  66  88 S7        29.95S
$$

IAZ055>058-069>071-079>083-090>094-241500-
   SOUTHWEST IOWA

CITY           SKY/WX    TMP DP  RH WIND       PRES   REMARKS
ATLANTIC *     SUNNY     73  66  78 S7        29.96S
AUDUBON *      SUNNY     72  66  83 CALM      29.97S
CLARINDA *     SUNNY     73  68  83 S6        29.98S
COUNCIL BLFS * SUNNY     72  70  94 SE8       29.94S
CRESTON *      SUNNY     72  64  78 S8        30.00R
HARLAN  *      SUNNY     73  68  83 S8        29.98S
LAMONI         SUNNY     72  65  78 S8        29.99S
RED OAK *      SUNNY     73  66  78 S6        29.96R
SHENANDOAH *   SUNNY     73  66  78 SE8       29.95S
$$

IAZ047>049-059>061-072>074-084-241500-
   CENTRAL IOWA

CITY           SKY/WX    TMP DP  RH WIND       PRES   REMARKS
AMES           SUNNY     71  66  84 SE5       29.99R
ANKENY *       SUNNY     73  66  78 SE8       29.99S
BOONE *        SUNNY     73  64  73 SE6       29.98S
CHARITON *     SUNNY     72  66  83 S6        30.00S
DES MOINES     MOSUNNY   73  64  73 S10       29.97S
GRINNELL*      SUNNY     72  63  72 SE8       30.03S
KNOXVILLE *    SUNNY     72  63  73 S8        29.99R
MARSHALLTOWN   SUNNY     71  64  78 SE9       30.00R
NEWTON *       SUNNY     72  63  73 SE8       30.01R
PELLA *        SUNNY     74  62  67 S7        30.01S
PERRY *          N/A     73  68  84 SE5       29.98R
$$

IAZ004>006-015-016-023>025-035-036-241500-
   NORTH CENTRAL IOWA

CITY           SKY/WX    TMP DP  RH WIND       PRES   REMARKS
ALGONA *       SUNNY     73  66  78 S9        29.97S
CLARION *      SUNNY     73  66  78 SE9       29.98S
ESTHERVILLE    SUNNY     69  66  90 S12       29.95S
FORT DODGE *   SUNNY     73  65  75 VRB7      29.98S
MASON CITY     SUNNY     72  63  73 S8        30.01S
FOREST CITY *    N/A     72  64  78 SE9       29.99S
WEBSTER CITY * SUNNY     73  63  68 SE8       29.96S
IOWA FALLS *     N/A     72  64  76 SE9       30.01S
$$

IAZ007>011-017>019-026>030-037>042-050>054-066-241500-
   NORTHEAST IOWA

CITY           SKY/WX    TMP DP  RH WIND       PRES   REMARKS
CEDAR RAPIDS   SUNNY     74  63  68 S7        30.03R
CHARLES CITY * SUNNY     72  63  73 SE10      30.02R
CLINTON *      SUNNY    N/A N/A N/A SE9       30.07S
DECORAH *      SUNNY     72  63  73 VRB6      30.03S
DUBUQUE        SUNNY     73  63  70 S6        30.06S
MONTICELLO *   SUNNY     73  64  73 S7        30.04S
OELWEIN *      SUNNY     73  63  68 SE9       30.04R
WATERLOO       SUNNY     73  61  65 SE10      30.00S
$$

IAZ064-065-067-068-078-241500-
   EAST CENTRAL IOWA

CITY           SKY/WX    TMP DP  RH WIND       PRES   REMARKS
DAVENPORT      SUNNY     74  63  68 SE7       30.07S
IOWA CITY      SUNNY     73  63  70 SE6       30.05R
MUSCATINE *    SUNNY     72  63  73 S6        30.05R HAZE
QUAD CITIES    SUNNY     74  62  66 SE6       30.05R
$$

IAZ062-063-075>077-085>089-095>099-241500-
   SOUTHEAST IOWA

CITY           SKY/WX    TMP DP  RH WIND       PRES   REMARKS
BURLINGTON     SUNNY     74  64  71 S6        30.04S
FAIRFIELD *    SUNNY     73  63  68 SE10      30.03R
FORT MADISON * SUNNY     73  63  68 S7        30.05S
KEOKUK *       SUNNY     75  63  64 SE5       30.03S
OSKALOOSA *      N/A     72  64  75 S6        30.02S
OTTUMWA        SUNNY     74  63  68 S12       30.01S
WASHINGTON *   SUNNY     73  64  73 S7        30.04S
$$

ABBREVIATIONS USED IN REMARKS
   TC - TEMPERATURES IN CELSIUS
  WCI - WIND CHILL INDEX
   HX - HEAT INDEX
  VSB - VISIBILITY
$$




USA.gov is the U.S. government's official web portal to all federal, state and local government web resources and services.